[Date Prev][Date Next][Thread Prev][Thread Next][Date Index][Thread Index]

[jamsat-news:1503] jas2info #227



========================   最新情報   ==============================

        Last updated :SUN.27MAY2001  17:10(JST)   #227
        
====================================================================
   
  1)アマチュア通信衛星情報、FOシリーズの軌道要素、テレメトリ、QSOの
   状況等をまとめてみました.
   
   FO−29の2001年5月26日(土)の9:19(JST)のパスでは
  JARLのホームページのとうりアナログ運用でした。観測したテレメトリーと
  分析結果を掲載しておきます.

AS23565C1  26MAY2001
9:19-9:33(JST)
435.805-.787MHz

HI HI AE C7 88 55 00 D4 57 2B 09 0F 75 5E    61 93 92 B0 78 AC AC AC AA A8 
HI HI AE C7 88 55 00 D4 57 2B 09 0F 7D 59 5A 61 93 92 B0 9E AC AC AC AA A8 
HI HI AE C7 87 55 00 D4 57 2B 02 0F 52 41 83 60 93 92 B0 83 AC AC AC AA A8 
HI HI AE C7 88 55 00 D4 57 2B 09 0F 86 3E 7A 60 94 92 B0 77 AB AC AC AA A8 
HI HI AE C7 88 55 00 D4 57 2B 09 0F 75 33 77 61 94 92 B1 72 AB AC AB A9 A8 
HI HI AE C7 88 55 00 D4 57 2B 09 0F 78 2F 82 60 94 92 B0 66 AB AC AB A9 A9 
HI HI AE C7 88 55 00 D4 57 2B 09 0F 66 2A 87 61 94 92 B0 76 AB AC AB A9 A8 
HI HI AE C7 88 55 00 D4 57 2B 09 0F 51 2E 89 61 94 92 B0 67 AB AC AB A9 A8 
HI HI AE C7 88 55 00 D4 57 2B 09 0F 3D 3D 87 61 94 92 B0 59 AB AC AB A9 A9 
HI HI AE C7 88 55 00 D4 57 2B 09 0F 2E 53 8E 61 94 92 B0 71 AB AC AB A9 A8 
HI EI AE C7 88 55 00 D4 57 2B 09 0F 28 70 93 60 94 92 B0 69 AB AC AB A9 A8 
HI HI AE C7 88 55 00 D4 57 2B 09 0F 2D 8F 8F 61 94 92 B0 72 AB AC AB A9 A8
HI HI AE C7 88 55 00 D4 57 2B 09 0F 3D A8 80 61 94 92 B0 6E AB AB AB A9 A8
HI HI AE C7 88 55 0O D4 57 2B 09 0F 54 BA 70 61 94 92 B0 68 AB AB AA A9 A8 
HI HI AE C7 88 55 00 D4 57 2B 09 0F 6E C1 6A 61 94 92 B0 64 AB AB AA A9 A9 
HI HI AE C7 88 55 00 D4 57 2B 09 0F 87 BD 5E 61 94 92 B0 67 AB AB AA A9 A9 
HI HI AE C7 88 55 00 D4 57 2B 09 0F 9A B1 58 61 94 92 B0 69 AB AB AA A9 A9
HI HI AE C7 88 55 00 D4 57 2B 09 0F A5 A1 5A 61 94 92 B0 77 AA AB AA A8 A8  
HI HI AE C7 88 55 00 D4 57 2B 09 0F A6 90 64 61 95 92 B0 66 AB AB AA A9 A9

AS23538C1  24MAY2001
9:26-9:37(JST)
FREQ. 435.803-.786MHz

HI HI AE C7 88 55 00 D4 CF 70 04 2E 4B 94 7F 60 93 91 B0 53 AD A8 AD AE A9 
HI HI AE C7 88 55 00 D4 CF 70 09 3B 56 A0 7C 60 93 91 B0 65 AD A8 AD AE A9 
HI HI AE C7 88 55 00 D5 CF 70 09 3B 64 A8 81 60 93 9  B0 90 AD A7 AD AE A9 
HI HI AE C7 88 55 00 D4 CF 70 09 3B 74 A9 7B 60 93 91 B0 41 AC A8 AD AE A9 
HI HI AE C7 88 55 00 D4 CF 70 09 3B 85 A5 6B 60 93 91 B0 9F AC A7 AD AE A9 
HI HI AE C7 88 55 00 D4 CF 70 09 3B 95 98 66 60 93 91 B0 55 AC A7 AD AE A9 
HI HI AE C7 88 55 00 D4 CF 70 09 3B A0 83 65 60 93 91 B0 7D AC A7 AD AE A9 
HI HI AE C7 88 55 00 D4 CF 70 09 3B A3 6A 6B 60 93 92 B0 88 AC A7 AD AE A9 
HI HI AE C7 88 55 00 D4 CF 70 09 3B 9C 4E 74 60 93 92 B0 6C AC A7 AD AE A9 
HI HI AE C7 88 55 00 D4 CF 70 09 3B 8A 37 83 60 93 91 B0 65 AC A7 AC AE A9 
HI HI AE C7 88 55 00 D4 CF 70 09 3B 6D 2B 89 60 93 92 B0 B7 AC A7 AC AE A9 
HI HI AE C7 88 55 00 D4 CF 70 09 3B 4D 30 88 60 93 92 B0 B7 AC A6 AC AE A9 
HI HI AE C7 88 55 00 D4 CF 70 09 3B 30 48 80 60 94 92 B0 69 AC A6 AC AE A9 
HI HI AE C7 88 55 00 D4 F7 55 09 3E 20 6D 86 60 94 (2 B0 67 AC A6 AB AE A9 
HI HI AE C7 88 55 00 D4 F7 55 09 3E 22 95 84 60 93 92 B0 47 AB A6 AC AE A9 

AS23531C1  23MAY2001
19:45-19:58(JST)
FREQ. 435.801-.789MHz

HI HI AE C7 88 55 00 D4 25 79 09 02 9B 91 6C 61 95 94 B0 89 A8 A4 A8 AA AA 
HI HI AE C7 88 55 00 D4 25 79 09 02 9D 9C 6B 61 95 94 B0 G3 A7 A4 A8 AA AA 
HI HI AE C7 88 55 00 D4 25 79 09 92 92 93 5E 61 95 94 B0 76 A7 A4 A8 AA AA 
HI HI AE C7 88 55 00 D4 25 79 09 02 82 9D 6B 61 95 94 B0 BE A7 A4 A8 A8 AA 
HI HI AE C7 88 55 00 D4 25 79 09 02 6F A4 6E 61 96 94 B0 5D A7 A4 A8 A9 AA 
HI HI AE C7 88 55 00 D4 25 79 09 02 5F A7 6C 62 96 94 B0 73 A7 A4 A8 A9 AA 
HI HI AE C7 88 55 00 D4 25 79 09 02 53 A2 60 62 96 94 B0 A0 A7 A4 A8 A9 AA 
HI HI AE C7 88 55 00 D4 25 79 09 02 50 94 5E 62 96 94 B0 67 A7 A4 A8 A9 AA 
HI HI AE C7 88 55 00 D4 25 79 09 02 55 7F 6D 62 96 94 B0 6E A7 A4 A8 A8 AA 
HI HI AE C7 88 55 00 D4 25 79 09 02 61 69 6F 62 96 94 B0 6F A6 A4 A8 A9 A9 
HI HI AE C7 88 55 00 D4 25 79 09 02 70 54 67 65 96 94 B0 6E A6 A4 A8 A9 AA 
HI HI AE C7 88 55 00 D4 25 79 09 02 7D 48 65 69 96 94 B0 75 A6 A3 A8 A9 AA  
HI HI AE C7 88 55 00 D4 25 79 09 02 75 44 00 87 87 87 92 8E A6 A3 A8 A8 A9 
HI HI AE 07 88 55 00 D4 25 79 09 02 85 4A 00 88 86 85 90 5F A6 A4 A8 A8 A9
HI HI AE 07 88 55 00 D4 25 79 09 02 7C 57 00 89 85 84 8E 5D A6 A4 A8 A8 A9 
HI HI AE 07 88 55 00 D4 25 79 09 02 74 6D 00 6S 84 82 8F 5O A6 A4 A8 A8 A9 

AS23518C1  22MAY2001
20:44-20:54(JST)
FREQ. 435.802-.786MHz

HI HI AE C7 88 55 00 D4 B6 1B 27 09 6B 61 94 93       B0 67 A8 A4 A7 A9 A8 
HI HI AE C7 88 55 00 D4 B6 1B 27 09 67 7A 61          B0 8F A8 A4 A7 A9 A8 
HI HI AE C7 88 H5 00 D4 B6 18 09 07 7E 85 3           B0 60 A8 A4 A7 A9 A8 
HI HI AE C7 88 55 00 D4 B6 18 09 07 8E 6D 6D 61 95 94 B0 7A A8 A4 A7 A9 A8 
HI HI AE C7 88 55 00 D4 B6 18 89 07    52 6D 61 95 94 B0 7C A8 A4 A7 A9 A8 
HI HI AE C7 88 55 00 D4 B6 18 09 07                 4 B0 8E A8 A4 A6 A9 A8 
HI HI AE C7 88 55 00 D4 B6 18 09 07 72 2D 52 62 95 94 AF 7F A8 A4 A6 A9 A8 
HI HI AE C7 88 55 00 D4 B6 18 09 07 59 3  64 67 93 92 9F 7F A8 A4 A6 A9 A8 
HI HI AE C7 88 55 00 D4 B6 18 09 07 50 44 47 41 93 92 9F 85 A7 A3 A6 A8 A8 
HI HI AE 07 88 55 00 D4 B6 18 09 07 3B 66 5        92 9E 59 A7 A4 A6 A9 A8  
HI HII AE C7 8 55 00 D4 B6 18 09 07 3F 83 5F 60 93 92 98 85 A7 A3 A6 A8 A8
HI HI AE C7 88 55 00 D4 B6 18 09 07 95 90 00 76 90 8E 94 5B A7 A3 A6 A8 A8 
HI HI AE C7 88 55 00 D4 B6 18 09 06 68 A0 00 8A 87 86 92 73 A7 A3 A6 A8 A8  
HI HI AE C7 88 55 00 D4 B6 18 09 07 7E 9A 00 78 85 85 90 73 A7 A3 A6 A8 A8 
HI HI AE 07 88 55 00 D4 B6 18 09 07 88 09 00    8F 84 90 73 A7 A3 A8 A8 A8
HI HI AE 07 88 55 00 D4 B6 18 09 07 90 75 00 88 84 84 8F 8B A7 A3 A6 A8 A8 

AS23511C1   22MAY2001
9:39-9:43(JST)
FREQ.435.787-.786

HI HI AE C7 88 55 00 D4 46 B6 09 44 66 C2 74 60 93 92 B0 49 AA A9 AA A5 E8 
HI HI AE C7 88 55 00 D4 46 B6 09 44 88 BF 63 61 94 92 B0 63 AA A9 AA A9 A9 
HI HI AE C7 88 55 00 D4 46 B6 09 44 A4 A6 5B 61 93 92 B  66 AA A9 AI A9 A9 

AS23504C1   21MAY2001
19:51-20:03(JST)
FREQ.435.801-.788MHz

HI HI AE C7 88 55 00 D4 3F AC 09 42 60 A8 67 61 95 93 B0 7E A8 A6 A6 A7 A9 
HI HI AE C7 88 55 00 D4 3F AC 09 42 72 AC 68 61 95 93 B0 82 A8 A6 A6 A7 A9 
HI HI AE C7 88 55 00 D4 3F AC 09 42 7F AD 72 61 95 93 B0 82 A8 A6 A6 A7 A9 
HI HI AE C7 88 55 00 D4 3F AC 09 42 82 A9 71 61 95 93 B0 8A A8 A6 A6 A7 A9 
HI HI AE C7 88 55 00 D4 3F AC 09 42 7C 9F 69 61 95 93 B0 84 A8 A6 A6 A7 A9 
HI HI AE C7 88 55 00 D4 3F AC 09 42 6E 90 6D 61 95 93 B0 7A A8 A5 A6 A7 A9 
HI HI AE C7 88 55 00 D4 3F AC 09 42 5B 7F 6C 61 95 93 B0 85 A8 A5 A6 A7 A8 
HI HI AE C7 88 55 00 D4 3F AC 09 42 4A 6E 5F 61 95 93 B0 80 A8 A5 A6 A6 A8 
HI HI AE C7 88 55 00 D4 3F AC 09 42 3E 61 65 61 95 93 B0 71 A8 A5 A6 A6 A8 
HI HI AE C7 88 55 00 D4 3F AC 09 42 3B 5A 63 61 95 93 B0 7A A8 A5 A6 A6 A9 
HI HI AE C7 88 55 00 D4 3F AC 09 42 41 58 5F 61 95 93 B0 8F A8 A5 A6 A7 A8 
HI HI AE C7 88 55 00 D4 3F AC 09 42 51 5C 51 63 95 93 99 72 A8 A5 A6 A6 A8 
HI HI AE 07 88 55 00 D4 3F AC 09 42 5E  

 ------------------------ FO-29の軌道要素 ------------------------------        
 
  ■ 軌道要素1:「jamsat−keps:1004」より         
          SB KEPS @ AMSAT  $ORB01144.N
          2Line Orbital Elements 01144.AMSAT

HR AMSAT ORBITAL ELEMENTS FOR AMATEUR SATELLITES IN NASA FORMAT
FROM WA5QGD FORT WORTH,TX May 24, 2001
SEND SUBSCRIBE/UNSUBSCRIBE TO majordomo@amsat.org ONLY
BID: ORB01144.N

 DECODE 2-LINE ELSETS WITH THE FOLLOWING KEY:
 1 AAAAAU 00  0  0 BBBBB.BBBBBBBB  .CCCCCCCC  00000-0  00000-0 0  DDDZ
 2 AAAAA EEE.EEEE FFF.FFFF GGGGGGG HHH.HHHH III.IIII JJ.JJJJJJJJKKKKKZ
 KEY: A-CATALOGNUM B-EPOCHTIME C-DECAY D-ELSETNUM E-INCLINATION F-RAAN
 G-ECCENTRICITY H-ARGPERIGEE I-MNANOM J-MNMOTION K-ORBITNUM Z-CHECKSUM

FO-29
1 24278U 96046B   01143.64529962  .00000020  00000-0  54260-4 0 04178
2 24278 098.5472 012.1960 0351881 065.4695 298.2695 13.52772635235327

 ■ 軌道要素2:「jamsat−keps:10105」より
        SB KEPS @ AMSAT  $ORB01144.O
        Orbital Elements  01144.OSCAR

HR AMSAT ORBITAL ELEMENTS FOR OSCAR SATELLITES
FROM WA5QGD FORT WORTH,TX May 24, 2001
SEND SUBSCRIBE/UNSUBSCRIBE TO majordomo@amsat.org ONLY
BID: ORB01144.O
TO ALL RADIO AMATEURS BT
 
Satellite: FO-29
Catalog number: 24278
Epoch time:      01143.64529962
Element set:    0417
Inclination:      098.5472 deg
RA of node:       012.1960 deg
Eccentricity:    0.0351881
Arg of perigee:   065.4695 deg
Mean anomaly:     298.2695 deg
Mean motion:   13.52772635 rev/day
Decay rate:        2.0e-07 rev/day^2
Epoch rev:           23532
Checksum:              323

-------------------  FO-29(JAS-2)のテレメトリに関する情報  ---------------------- 
 
2)上記5月26日(土)のテレメトリ最終行を分析しておきます.

AS23565C1  26MAY2001
9:19-9:33(JST)
435.805-.787MHz

HI HI AE C7 88 55 00 D4 57 2B 09 0F A6 90 64 61 95 92 B0 66 AB AB AA A9 A9

テレメトリ   内 容       換算算値 単 位  
3C	磁気センサーZ軸=	81372.5	[nT]
3D	磁気センサX軸	=	70588.2	[nT]
4A	太陽電池発生電流=	  980.4	[mA]
4B	B充放電電流	=	  -98.8	[mA]
4C	B端子電圧	=	   16.0	[V]
4D	B中間端子電圧	=           7.0	[V]
5A	バス電圧	=	   17.3	[V]
5B	JTA送信電力	=	  564.9	[mW]
5C 	構体温度1	=	   15.5	[℃]
5D	構体温度2	=	   15.5	[℃]
6A	構体温度3	=	   15.9	[℃]
6B	構体温度4	=	   16.2	[℃]
6C	Bセル温度	=	   16.2	[℃]
   	
 ========================== FO-29(ふじ3号)のQSO情報等 ======================
   
 3)[jamsat-bb:

 ===============================================================================
   4)JARL のホームページに運用予定が記載されていましたのでご紹介します.
       ( http://www.jarl.or.jp/Japanese/3_Fuji/new/uy.htm )

        ■ ふじ3号/FOー29/JAS-2 ■  
   
     *** 運用予定について ***

     4月2日 〜 7月2日 アナログ系運用

  *なお,運用予定は都合により変更することがありますので予めご了承願います。

 照会先 : lab@jarl.or.jp

 最新の情報はテレホンサービス(03−3942−1000)をお聞きください。  
 以後の運用につきましては平成13年7月上旬にお知らせ致します。    
    
-----------------------    FO−20(JAS-1b)道要素   -------------------------
  5)
  ■ 軌道要素1 :出典はFO-29「ふじ3号」に同じ.
  
FO-20
1 20480U 90013C   01143.92466419 -.00000029  00000-0  89606-5 0 03155
2 20480 099.0605 216.8775 0540668 004.1865 356.3500 12.83292631528985
 
  ■ 軌道要素2 :出典はFO−29「ふじ3号」に同じ.
               
